This is the latest recevied weather packets stored in our database for station/object N5JXS. If no packets are shown the sender has not sent any weather packets the latest 10 day(s).
| Time | Temp. | Humidity | Pressure | Rain* | Wind** | Luminosity | Snow |
|---|---|---|---|---|---|---|---|
| 1787973339 | 17.78° C | 56% | 1029 hPa | 0 mm | - | 0 W/m² | - |
| 1787973038 | 17.78° C | 56% | 1029 hPa | 0 mm | - | 0 W/m² | - |
| 1787972734 | 17.22° C | 57% | 1028.8 hPa | 0 mm | - | 0 W/m² | - |
| 1787972432 | 17.22° C | 57% | 1028.8 hPa | 0 mm | - | 0 W/m² | - |
| 1787972127 | 17.22° C | 57% | 1028.6 hPa | 0 mm | - | 0 W/m² | - |
| 1787971822 | 17.22° C | 55% | 1028.7 hPa | 0 mm | - | 0 W/m² | - |
| 1787971518 | 17.78° C | 54% | 1028.6 hPa | 0 mm | - | 0 W/m² | - |
| 1787971214 | 17.78° C | 57% | 1028 hPa | 0 mm | - | 0 W/m² | - |
| 1787970913 | 18.33° C | 55% | 1028.5 hPa | 0 mm | - | 0 W/m² | - |
| 1787970608 | 17.78° C | 53% | 1028.2 hPa | 0 mm | - | 0 W/m² | - |
| 1787970308 | 18.33° C | 52% | 1028.3 hPa | 0 mm | - | 0 W/m² | - |
| 1787970006 | 18.33° C | 54% | 1028.2 hPa | 0 mm | - | 0 W/m² | - |
| 1787969701 | 18.33° C | 59% | 1028.3 hPa | 0 mm | - | 0 W/m² | - |
| 1787969400 | 17.78° C | 58% | 1028.2 hPa | 0 mm | - | 0 W/m² | - |
| 1787969094 | 17.78° C | 58% | 1028 hPa | 0 mm | - | 0 W/m² | - |
| 1787968789 | 18.33° C | 58% | 1028.1 hPa | 0 mm | - | 0 W/m² | - |
| 1787968488 | 17.78° C | 59% | 1028.2 hPa | 0 mm | - | 0 W/m² | - |
| 1787968184 | 17.78° C | 62% | 1028 hPa | 0 mm | - | 0 W/m² | - |
| 1787967883 | 17.78° C | 61% | 1028 hPa | 0 mm | - | 0 W/m² | - |
| 1787967580 | 17.78° C | 62% | 1028.2 hPa | 0 mm | - | 0 W/m² | - |
| 1787967275 | 18.33° C | 64% | 1028.3 hPa | 0 mm | - | 0 W/m² | - |
| 1787966971 | 18.33° C | 63% | 1028.1 hPa | 0 mm | - | 3 W/m² | - |
| 1787966668 | 18.89° C | 65% | 1028.1 hPa | 0 mm | - | 5 W/m² | - |
| 1787966367 | 18.89° C | 63% | 1028.3 hPa | 0 mm | - | 9 W/m² | - |
| 1787966062 | 18.89° C | 63% | 1028.3 hPa | 0 mm | - | 10 W/m² | - |
* Rain latest hour (hover to see other rain measurements)
** Current wind speed in m/s (hover to see current wind gust speed)